SCP
0 0 0 0 0 0 0 0 0 0 0 0 0 0 0 0 0 0 0 0 -0 -0 -0 -0 -0 -0 -0 -0 -0 -0 -0 -0 -0 0 -0 -0 -0 -0 -0 -0 -0 0 0 0 -0 -0 0 0 0
0 0 0 0 0 0 0 0 0 0 0 0 0 0 0 0 0 0 0 0 -0 -0 -0 0 -0 -0 -0 -0 -0 -0 -0 -0 -0 0 -0 -0 -0 -0 -0 -0 -0 0 0 0 0 0 -0 0 0
0 0 0 0 0 0 0 0 0 0 0 0 0 0 0 0 0 0 0 -0 -0 -0 0 0 -0 -0 -0 -0 -0 -0 -0 -0 -0 0 0 -0 -0 -0 -0 -0 0 0 0 0 0 0 -0 0 0
0 0 0 0 0 0 0 0 0 0 0 0 0 0 0 0 0 0 0 0 -0 -0 0 0 -0 -0 -0 -0 -0 -0 -0 -0 -0 0 -0 -0 -0 -0 0 0 0 0 -0 -0 -0 -0 -0 -0 0
0 0 0 0 0 0 0 0 0 0 0 0 0 0 0 0 0 0 0 0 0 0 0 0 -0 -0 0 -0 -0 -0 -0 -0 -0 -0 0 0 -0 0 0 0 -0 -0 -0 -0 -0 -0 -0 0 0
0 0 0 0 0 0 0 0 0 0 0 0 0 0 0 0 0 0 0 0 0 0 0 0 0 0 0 0 -0 -0 -0 -0 -0 -0 0 0 0 0 0 0 -0 -0 -0 -0 -0 0 -0 -0 -0
0 0 0 0 0 0 0 0 0 0 0 0 0 0 0 0 0 0 0 0 0 0 0 0 0 0 0 0 -0 -0 -0 -0 -0 -0 0 0 0 0 0 -0 -0 -0 -0 0 0 -0 -0 -0 0
0 0 0 0 0 0 0 0 0 0 0 0 0 0 0 0 0 0 0 0 0 0 0 0 0 0 0 0 0 0 0 0 0 0 0 0 0 0 -0 -0 -0 -0 0 0 0 0 0 0 0
0 0 0 0 0 0 0 0 0 0 0 0 0 0 0 0 0 0 0 0 0 0 0 0 0 0 0 0 0 0 0 0 0 0 0 0 0 0 -0 -0 -0 -0 0 -0 -0 0 0 0 0
0 0 0 0 0 0 0 0 0 0 0 0 0 0 0 0 0 0 0 0 0 0 0 0 0 0 0 0 0 0 0 0 0 0 0 0 0 0 -0 -0 -0 -0 -0 -0 -0 0 0 0 0
0 0 0 0 0 0 0 0 0 0 0 0 0 0 0 0 0 0 0 0 0 0 0 0 0 0 0 0 0 0 0 0 0 0 0 0 0 0 0 0 0 -0 -0 0 0 0 0 0 0
0 0 0 0 0 0 0 0 0 0 0 0 0 0 0 0 0 0 0 0 0 0 0 0 0 0 0 0 0 0 0 0 0 0 0 0 0 0 0 0 0 0 0 0 0 0 0 0 0
0 0 0 0 0 0 0 0 0 0 0 0 0 0 0 0 0 0 0 0 0 0 0 0 0 0 0 0 0 0 0 0 0 0 0 0 0 0 0 0 0 0 0 0 0 0 0 0 0
0 0 0 0 0 0 0 0 0 0 0 0 0 0 0 0 0 0 0 0 0 0 0 0 0 0 0 0 0 0 0 0 0 0 0 0 0 0 0 0 0 0 0 0 0 0 0 0 0
0 0 0 0 0 0 0 0 0 0 0 0 0 0 0 0 0 0 0 0 0 0 0 0 0 0 0 0 0 0 0 0 0 0 0 0 0 0 0 0 0 0 0 0 0 0 0 0 0
0 0 0 0 0 0 0 -0 0 0 0 0 0 0 0 0 0 0 0 0 0 0 0 0 0 0 0 0 0 0 0 0 0 0 0 0 0 0 0 0 0 0 0 0 0 0 0 0 0
0 0 0 0 0 0 0 0 0 0 0 0 0 0 0 0 0 0 0 0 0 0 0 0 0 0 0 0 0 0 0 0 0 0 0 0 0 0 0 0 0 0 0 0 0 0 0 0 0
0 0 0 0 0 0 0 0 0 0 0 0 0 0 0 0 0 0 0 0 0 0 0 0 0 0 0 0 0 0 0 0 0 0 0 0 0 0 0 0 0 0 0 0 0 0 0 0 0
0 0 0 0 0 0 0 0 0 0 0 0 0 0 0 0 0 0 0 0 0 0 0 0 0 0 0 0 0 0 0 0 0 0 0 0 0 0 0 0 0 0 0 0 0 0 0 0 0
0 0 0 0 0 0 0 0 0 0 0 0 0 0 0 0 0 0 0 0 0 0 0 0 0 0 0 0 0 0 0 0 0 0 0 0 0 0 0 0 0 0 0 0 0 0 0 0 0
0 -0 -0 0 0 -0 0 0 0 0 0 0 0 0 0 0 0 0 0 0 0 0 0 0 0 0 0 0 0 0 0 0 0 0 0 0 0 0 0 0 0 0 0 0 0 0 0 0 0
0 -0 -0 0 0 -0 -0 0 0 0 0 0 0 0 0 0 0 0 0 0 0 0 0 0 0 0 0 0 0 0 0 0 0 0 0 0 0 0 0 0 0 0 0 0 0 0 0 0 0
0 -0 -0 0 0 0 0 0 0 0 0 0 0 0 0 0 0 0 0 0 0 0 0 0 0 0 0 0 0 0 0 0 0 0 0 0 0 0 0 0 0 0 0 0 0 0 0 0 0
-0 -0 0 0 0 0 0 0 0 0 0 0 0 0 0 0 0 0 0 0 0 0 0 0 0 0 0 0 0 0 0 0 0 0 0 0 0 0 0 0 0 0 0 0 0 0 0 0 0
-0 -0 0 0 0 0 0 0 0 0 0 0 0 0 0 0 0 0 0 0 0 0 0 0 0 0 0 0 0 0 0 0 0 0 0 0 0 0 0 0 0 0 0 0 0 0 0 0 0
0 0 0 0 0 0 0 0 0 0 0 0 0 0 0 0 0 0 0 0 0 0 0 0 0 0 0 0 0 0 0 0 0 0 0 0 0 0 0 0 0 0 0 0 0 0 0 0 0
0 0 0 0 0 0 0 0 0 0 0 0 0 0 0 0 0 0 0 0 0 0 0 0 0 0 0 0 0 0 0 0 0 0 0 0 0 0 0 0 0 0 0 0 0 0 0 0 0
0 0 0 0 0 0 0 0 0 0 0 0 0 0 0 0 0 0 0 0 0 0 0 0 0 0 0 0 0 0 0 0 0 0 0 0 0 0 0 0 0 0 0 0 0 0 0 0 0
0 0 0 0 0 0 0 0 0 0 0 0 0 0 0 0 0 0 0 0 0 0 0 0 0 0 0 0 0 0 0 0 0 0 0 0 0 0 0 0 0 0 0 0 0 0 0 0 0
0 0 0 0 0 0 0 0 0 0 0 0 0 0 0 0 0 0 0 0 0 0 0 0 0 0 0 0 0 0 0 0 0 0 0 0 0 0 0 0 0 0 0 0 0 0 0 0 0
Wind_Speed_500mb
22 20 14 7 4 6 6 12 6 8 4 3 17 11 20 10 10 8 19 45 56 56 52 44 41 44 44 36 31 24 20 18 17 18 21 26 28 28 29 30 30 29 28 26 24 22 22 22 23
23 23 12 3 5 4 9 9 15 8 3 19 19 20 9 6 7 10 39 46 60 56 53 45 43 46 45 39 33 26 21 18 18 19 23 27 28 28 28 29 28 27 25 23 21 21 21 21 21
22 20 6 5 6 12 9 12 8 9 19 5 6 5 10 5 15 28 32 57 59 57 51 45 45 47 45 39 35 27 21 19 18 20 24 27 28 28 28 28 26 24 22 21 20 20 19 18 18
14 8 5 5 14 9 12 7 4 2 10 1 5 6 5 8 15 35 50 60 59 56 49 45 47 47 44 39 36 30 22 19 17 16 22 27 28 28 26 25 23 22 21 20 19 18 16 15 15
12 6 5 6 11 7 8 11 6 4 7 2 12 7 1 16 22 37 48 59 59 57 49 47 46 47 45 39 36 33 27 17 14 17 21 26 28 27 25 23 21 21 19 18 16 14 13 12 12
9 6 4 11 12 8 8 16 4 5 8 9 6 14 9 20 26 43 47 56 55 55 50 49 45 45 44 40 40 37 24 14 12 18 24 27 27 25 23 21 20 19 17 14 12 10 10 10 12
8 6 10 11 9 11 8 15 7 9 8 11 15 11 6 27 28 45 46 55 57 51 49 49 46 46 44 42 43 36 23 14 13 22 27 28 27 24 22 20 19 16 12 9 8 8 9 11 11
14 6 21 14 15 18 8 6 4 10 3 10 18 13 10 43 41 48 50 56 53 51 48 50 49 48 47 45 41 33 23 16 18 25 28 28 25 23 20 18 15 12 9 7 8 9 9 13 13
23 14 29 36 26 9 7 5 4 4 8 10 19 9 12 37 51 57 57 58 57 55 51 52 51 50 48 46 40 31 23 20 24 29 29 27 24 21 18 16 12 9 6 5 6 12 17 12 21
21 19 40 18 14 12 13 6 2 4 7 11 14 20 17 38 64 70 70 71 69 63 58 55 54 53 50 45 38 32 26 24 29 31 30 26 23 20 17 13 10 5 1 8 8 12 23 20 20
15 35 15 24 31 49 21 8 12 7 7 21 30 34 29 46 72 73 74 72 75 70 64 60 58 55 50 45 39 33 28 29 33 33 29 26 22 20 16 11 7 3 3 6 10 14 20 21 16
23 26 29 29 30 36 15 12 9 21 22 14 20 41 41 60 77 78 79 75 74 75 70 63 61 58 51 43 37 32 31 34 34 32 28 24 22 19 15 11 5 1 5 9 12 17 20 19 15
39 36 30 43 48 49 37 27 28 28 34 19 20 32 43 61 70 72 69 69 72 74 70 66 63 60 53 46 40 35 35 36 35 31 27 24 22 20 14 9 5 7 10 14 16 18 17 15 13
30 41 40 50 49 47 29 24 23 25 48 44 20 40 48 49 61 73 76 76 71 68 68 66 64 57 52 48 42 37 37 38 34 31 27 25 21 16 12 9 9 11 15 18 19 16 14 12 10
41 35 33 35 40 19 32 42 45 47 30 41 26 45 52 47 54 77 81 80 72 64 63 67 64 57 52 46 42 40 38 38 33 32 29 27 21 18 14 13 12 14 16 18 15 12 11 11 11
15 20 37 22 23 20 25 55 24 53 46 48 45 42 59 51 43 76 83 81 72 62 65 65 64 58 51 46 44 43 40 39 36 30 26 24 20 17 17 16 14 16 17 14 11 9 9 10 10
16 28 36 31 34 21 39 33 19 33 54 49 50 50 60 60 63 81 88 83 75 65 64 68 66 61 54 45 41 41 42 38 36 32 29 24 20 19 18 18 17 17 15 11 8 7 6 8 8
27 19 32 31 14 41 39 38 13 31 52 56 51 54 59 63 87 85 85 81 76 66 65 65 64 60 56 53 48 44 41 41 38 37 31 28 24 21 20 17 16 15 11 8 8 7 7 7 4
34 39 30 23 14 17 37 30 27 32 17 39 48 57 65 76 72 78 83 80 80 70 68 69 66 64 64 60 59 55 47 45 41 38 34 29 25 20 20 18 15 13 9 7 8 9 8 5 2
39 39 32 33 22 14 17 16 21 24 31 33 42 53 64 59 60 78 83 81 84 77 71 68 69 67 65 59 58 55 51 48 43 37 35 30 24 21 21 17 13 11 8 7 8 9 8 4 4
39 39 31 38 13 16 5 12 24 19 42 41 42 59 69 71 75 77 79 86 85 84 78 73 74 70 66 66 65 55 51 51 47 42 35 28 24 22 20 17 14 11 8 5 5 6 7 9 8
39 38 37 29 17 10 24 14 22 33 36 37 45 52 62 67 70 73 80 85 88 87 79 75 76 78 72 68 65 62 55 54 46 39 33 29 27 26 23 19 16 12 7 4 4 8 9 10 13
31 31 35 47 21 7 17 12 9 16 29 40 39 51 63 72 68 73 76 84 87 82 79 84 83 80 78 70 66 60 57 57 46 43 36 28 31 29 24 21 17 11 6 4 9 9 11 10 11
10 9 34 8 11 11 19 22 9 16 40 42 35 46 62 71 64 65 77 85 83 76 71 69 81 83 82 70 66 59 57 54 55 47 39 38 35 30 27 21 14 8 7 9 10 10 7 11 12
31 17 7 13 9 9 9 21 26 11 9 40 51 47 56 66 66 76 83 88 84 80 75 71 75 76 80 71 68 62 60 59 56 55 50 47 37 31 25 20 13 5 9 11 8 7 10 11 13
45 19 9 14 12 7 4 20 11 4 14 36 55 49 60 66 78 84 89 85 85 83 78 74 72 68 74 73 69 68 67 68 68 57 51 39 33 30 23 14 4 14 29 11 7 8 12 14 15
24 15 8 7 9 6 9 7 15 5 15 31 41 55 59 65 72 72 83 84 84 79 78 75 78 77 75 74 74 76 74 73 63 51 42 37 37 26 15 9 24 38 14 11 8 10 13 17 19
12 16 5 4 8 5 7 7 2 11 8 34 34 42 53 67 72 84 83 80 78 82 79 80 78 80 79 77 76 79 69 60 47 44 47 40 30 15 18 36 27 17 17 14 11 12 16 19 20
7 5 5 7 2 4 3 4 3 15 19 35 30 41 56 68 72 72 81 80 80 77 72 69 74 76 76 80 80 70 59 51 53 46 40 27 18 21 30 25 20 19 16 15 15 17 20 22 23
4 7 2 5 4 2 4 4 9 17 16 21 29 44 56 63 65 64 63 66 67 68 69 66 66 68 61 55 56 54 55 56 44 44 34 24 20 24 24 22 19 19 20 19 20 22 25 27 28
Wind_Direction_500mb
317 325 314 292 74 70 251 256 274 287 264 277 128 154 175 146 171 203 162 169 171 171 168 169 168 164 163 162 165 158 136 121 113 124 129 123 120 117 114 113 111 107 102 96 91 85 79 75 71
304 323 312 202 147 173 256 255 247 245 291 125 118 121 117 165 173 158 151 164 169 169 168 170 170 167 167 167 168 160 140 126 117 123 126 127 123 121 120 117 114 108 102 94 87 82 78 75 69
297 312 279 184 184 202 206 221 252 284 197 148 114 106 142 204 184 166 161 160 167 169 168 170 171 170 170 168 169 163 152 139 123 126 129 128 128 126 123 122 116 106 98 90 83 80 75 69 63
284 291 239 152 226 252 202 201 257 20 195 229 155 96 153 182 182 170 162 163 167 168 168 171 171 171 172 171 169 169 163 142 114 120 125 128 129 129 126 114 106 100 93 88 83 75 66 58 50
270 233 237 225 241 248 237 265 285 287 191 203 165 178 94 139 164 167 166 165 170 168 168 169 172 175 174 173 171 168 152 130 119 129 134 134 130 129 122 114 107 98 92 86 79 70 60 56 44
238 176 189 222 233 220 229 239 239 240 194 175 149 134 152 163 173 165 165 168 174 170 168 169 171 176 177 174 174 168 159 145 134 141 141 140 137 131 124 116 107 99 91 84 76 64 58 43 26
192 174 213 215 229 239 217 229 201 226 197 219 160 140 185 174 175 170 169 169 172 174 172 170 172 174 175 174 173 173 174 165 159 154 148 143 139 134 125 116 107 102 102 97 77 61 39 20 12
215 210 220 199 218 247 217 192 273 198 231 181 176 186 196 185 175 174 169 172 178 178 177 174 173 175 174 172 175 179 183 179 173 163 155 149 143 135 127 122 118 120 121 83 61 33 0 351 341
216 229 233 223 210 233 172 143 94 204 159 182 202 205 176 187 174 176 175 178 183 183 181 178 176 175 175 174 176 182 186 186 175 167 160 154 147 140 136 132 131 121 91 54 359 12 359 353 349
212 237 234 234 194 212 189 160 38 215 203 188 212 232 227 186 181 182 183 181 185 185 183 183 179 178 178 178 181 185 191 186 176 169 164 158 154 151 146 144 140 136 31 23 1 354 338 347 341
223 242 247 240 221 228 243 230 224 196 236 222 223 234 214 189 187 189 189 190 189 189 187 187 184 183 183 184 187 190 192 185 178 172 167 166 162 159 159 157 146 61 8 337 329 320 329 336 335
267 242 237 255 249 232 215 219 204 207 235 286 298 249 208 191 194 194 195 193 193 192 193 190 190 190 189 191 194 196 191 184 180 177 176 174 172 173 171 173 153 271 317 324 317 318 323 327 321
262 275 265 248 248 245 232 211 227 214 240 259 300 211 200 194 198 199 199 199 196 194 196 195 193 195 194 194 194 193 187 183 181 183 181 180 179 184 174 177 193 268 287 302 314 316 317 315 318
304 301 280 256 250 238 241 239 217 234 241 257 259 224 203 189 202 206 211 206 199 198 200 195 192 191 194 194 191 187 184 186 189 188 188 185 188 183 189 202 229 267 291 303 310 311 307 309 316
283 278 285 258 245 240 233 253 232 234 228 241 242 239 215 207 216 220 217 212 206 204 203 196 190 191 192 191 186 185 186 189 191 191 191 191 188 197 200 226 246 276 292 299 301 302 305 313 316
293 263 248 252 219 229 185 253 222 230 228 233 234 230 218 206 231 229 221 214 210 207 200 192 191 190 185 184 184 184 187 188 186 188 194 192 198 207 222 231 255 280 291 287 288 292 296 310 317
233 253 234 255 214 204 211 248 211 226 215 221 221 217 223 221 229 221 217 213 210 204 196 191 190 186 180 174 176 184 185 185 188 189 197 200 215 223 225 240 264 281 280 276 271 280 299 313 307
240 243 249 226 219 211 223 235 266 228 219 217 211 212 211 207 218 215 213 212 208 202 197 192 190 189 186 185 190 191 186 191 192 199 200 208 223 236 241 257 266 272 263 261 271 287 307 319 294
257 264 251 226 236 250 222 235 228 229 238 217 203 200 199 210 209 212 211 209 205 202 198 196 192 190 190 188 192 199 193 197 195 203 209 218 233 246 246 252 257 250 240 252 267 289 324 345 207
243 260 264 253 221 238 288 247 237 242 236 219 212 200 201 198 194 205 206 206 204 203 201 198 196 195 195 199 198 199 197 202 205 207 215 223 240 242 251 251 240 228 228 251 285 308 308 315 229
247 244 255 251 177 215 257 265 254 242 238 219 213 208 204 195 198 203 205 207 205 206 204 201 199 200 198 200 199 200 200 205 207 212 219 230 242 237 240 234 218 214 223 250 280 287 294 309 320
245 224 244 274 175 215 170 259 221 224 227 217 203 205 200 191 197 206 208 207 207 209 210 207 205 204 205 205 208 210 211 208 213 221 229 234 236 230 221 211 206 211 218 222 287 303 307 312 312
244 209 245 232 214 202 190 236 251 182 207 205 195 198 200 191 189 198 212 211 209 209 212 212 210 210 208 211 212 216 214 220 218 222 225 233 233 219 207 198 196 194 197 305 300 302 306 311 318
165 216 244 125 202 205 194 205 244 197 205 204 201 192 193 199 206 224 220 211 208 208 210 207 209 211 208 211 212 219 213 218 223 217 219 225 213 206 195 191 184 186 291 296 296 289 319 342 332
189 196 166 203 208 195 194 194 240 215 248 205 189 176 179 189 190 198 208 205 206 204 205 201 204 207 206 209 214 215 218 220 227 225 219 217 202 190 188 181 181 290 311 299 288 314 340 336 339
183 215 176 171 168 145 188 222 236 257 277 236 193 168 179 175 190 199 204 203 204 204 201 200 202 203 205 210 214 216 215 221 223 217 204 198 183 181 182 178 291 309 313 270 274 309 334 333 332
171 204 252 190 55 67 210 267 274 316 272 178 161 151 170 180 193 200 201 202 202 201 198 200 201 202 205 210 214 215 221 218 210 201 194 173 165 170 169 275 300 290 241 243 269 313 318 323 322
227 155 159 36 143 230 226 254 275 353 234 166 161 157 163 166 176 191 195 195 198 198 197 201 205 205 206 208 213 217 213 214 203 182 166 167 173 169 271 285 274 227 230 246 281 303 307 310 306
130 169 48 92 140 99 267 247 200 290 293 170 159 139 143 160 177 182 182 187 192 195 201 203 202 208 210 212 212 200 197 183 180 175 156 173 204 253 273 253 232 231 239 262 281 288 296 297 298
59 42 27 147 168 210 264 286 339 291 277 135 115 122 141 163 173 182 183 185 190 192 194 197 196 197 202 195 187 189 185 175 160 152 167 213 249 250 232 230 232 243 255 268 277 282 287 293 293
Wind_Speed_850mb
22 20 14 7 4 6 6 12 6 8 4 3 17 11 20 10 10 8 19 45 56 56 52 44 41 44 44 36 31 24 20 18 17 18 21 26 28 28 29 30 30 29 28 26 24 22 22 22 23
23 23 12 3 5 4 9 9 15 8 3 19 19 20 9 6 7 10 39 46 60 56 53 45 43 46 45 39 33 26 21 18 18 19 23 27 28 28 28 29 28 27 25 23 21 21 21 21 21
22 20 6 5 6 12 9 12 8 9 19 5 6 5 10 5 15 28 32 57 59 57 51 45 45 47 45 39 35 27 21 19 18 20 24 27 28 28 28 28 26 24 22 21 20 20 19 18 18
14 8 5 5 14 9 12 7 4 2 10 1 5 6 5 8 15 35 50 60 59 56 49 45 47 47 44 39 36 30 22 19 17 16 22 27 28 28 26 25 23 22 21 20 19 18 16 15 15
12 6 5 6 11 7 8 11 6 4 7 2 12 7 1 16 22 37 48 59 59 57 49 47 46 47 45 39 36 33 27 17 14 17 21 26 28 27 25 23 21 21 19 18 16 14 13 12 12
9 6 4 11 12 8 8 16 4 5 8 9 6 14 9 20 26 43 47 56 55 55 50 49 45 45 44 40 40 37 24 14 12 18 24 27 27 25 23 21 20 19 17 14 12 10 10 10 12
8 6 10 11 9 11 8 15 7 9 8 11 15 11 6 27 28 45 46 55 57 51 49 49 46 46 44 42 43 36 23 14 13 22 27 28 27 24 22 20 19 16 12 9 8 8 9 11 11
14 6 21 14 15 18 8 6 4 10 3 10 18 13 10 43 41 48 50 56 53 51 48 50 49 48 47 45 41 33 23 16 18 25 28 28 25 23 20 18 15 12 9 7 8 9 9 13 13
23 14 29 36 26 9 7 5 4 4 8 10 19 9 12 37 51 57 57 58 57 55 51 52 51 50 48 46 40 31 23 20 24 29 29 27 24 21 18 16 12 9 6 5 6 12 17 12 21
21 19 40 18 14 12 13 6 2 4 7 11 14 20 17 38 64 70 70 71 69 63 58 55 54 53 50 45 38 32 26 24 29 31 30 26 23 20 17 13 10 5 1 8 8 12 23 20 20
15 35 15 24 31 49 21 8 12 7 7 21 30 34 29 46 72 73 74 72 75 70 64 60 58 55 50 45 39 33 28 29 33 33 29 26 22 20 16 11 7 3 3 6 10 14 20 21 16
23 26 29 29 30 36 15 12 9 21 22 14 20 41 41 60 77 78 79 75 74 75 70 63 61 58 51 43 37 32 31 34 34 32 28 24 22 19 15 11 5 1 5 9 12 17 20 19 15
39 36 30 43 48 49 37 27 28 28 34 19 20 32 43 61 70 72 69 69 72 74 70 66 63 60 53 46 40 35 35 36 35 31 27 24 22 20 14 9 5 7 10 14 16 18 17 15 13
30 41 40 50 49 47 29 24 23 25 48 44 20 40 48 49 61 73 76 76 71 68 68 66 64 57 52 48 42 37 37 38 34 31 27 25 21 16 12 9 9 11 15 18 19 16 14 12 10
41 35 33 35 40 19 32 42 45 47 30 41 26 45 52 47 54 77 81 80 72 64 63 67 64 57 52 46 42 40 38 38 33 32 29 27 21 18 14 13 12 14 16 18 15 12 11 11 11
15 20 37 22 23 20 25 55 24 53 46 48 45 42 59 51 43 76 83 81 72 62 65 65 64 58 51 46 44 43 40 39 36 30 26 24 20 17 17 16 14 16 17 14 11 9 9 10 10
16 28 36 31 34 21 39 33 19 33 54 49 50 50 60 60 63 81 88 83 75 65 64 68 66 61 54 45 41 41 42 38 36 32 29 24 20 19 18 18 17 17 15 11 8 7 6 8 8
27 19 32 31 14 41 39 38 13 31 52 56 51 54 59 63 87 85 85 81 76 66 65 65 64 60 56 53 48 44 41 41 38 37 31 28 24 21 20 17 16 15 11 8 8 7 7 7 4
34 39 30 23 14 17 37 30 27 32 17 39 48 57 65 76 72 78 83 80 80 70 68 69 66 64 64 60 59 55 47 45 41 38 34 29 25 20 20 18 15 13 9 7 8 9 8 5 2
39 39 32 33 22 14 17 16 21 24 31 33 42 53 64 59 60 78 83 81 84 77 71 68 69 67 65 59 58 55 51 48 43 37 35 30 24 21 21 17 13 11 8 7 8 9 8 4 4
39 39 31 38 13 16 5 12 24 19 42 41 42 59 69 71 75 77 79 86 85 84 78 73 74 70 66 66 65 55 51 51 47 42 35 28 24 22 20 17 14 11 8 5 5 6 7 9 8
39 38 37 29 17 10 24 14 22 33 36 37 45 52 62 67 70 73 80 85 88 87 79 75 76 78 72 68 65 62 55 54 46 39 33 29 27 26 23 19 16 12 7 4 4 8 9 10 13
31 31 35 47 21 7 17 12 9 16 29 40 39 51 63 72 68 73 76 84 87 82 79 84 83 80 78 70 66 60 57 57 46 43 36 28 31 29 24 21 17 11 6 4 9 9 11 10 11
10 9 34 8 11 11 19 22 9 16 40 42 35 46 62 71 64 65 77 85 83 76 71 69 81 83 82 70 66 59 57 54 55 47 39 38 35 30 27 21 14 8 7 9 10 10 7 11 12
31 17 7 13 9 9 9 21 26 11 9 40 51 47 56 66 66 76 83 88 84 80 75 71 75 76 80 71 68 62 60 59 56 55 50 47 37 31 25 20 13 5 9 11 8 7 10 11 13
45 19 9 14 12 7 4 20 11 4 14 36 55 49 60 66 78 84 89 85 85 83 78 74 72 68 74 73 69 68 67 68 68 57 51 39 33 30 23 14 4 14 29 11 7 8 12 14 15
24 15 8 7 9 6 9 7 15 5 15 31 41 55 59 65 72 72 83 84 84 79 78 75 78 77 75 74 74 76 74 73 63 51 42 37 37 26 15 9 24 38 14 11 8 10 13 17 19
12 16 5 4 8 5 7 7 2 11 8 34 34 42 53 67 72 84 83 80 78 82 79 80 78 80 79 77 76 79 69 60 47 44 47 40 30 15 18 36 27 17 17 14 11 12 16 19 20
7 5 5 7 2 4 3 4 3 15 19 35 30 41 56 68 72 72 81 80 80 77 72 69 74 76 76 80 80 70 59 51 53 46 40 27 18 21 30 25 20 19 16 15 15 17 20 22 23
4 7 2 5 4 2 4 4 9 17 16 21 29 44 56 63 65 64 63 66 67 68 69 66 66 68 61 55 56 54 55 56 44 44 34 24 20 24 24 22 19 19 20 19 20 22 25 27 28
Wind_Direction_850mb
317 325 314 292 74 70 251 256 274 287 264 277 128 154 175 146 171 203 162 169 171 171 168 169 168 164 163 162 165 158 136 121 113 124 129 123 120 117 114 113 111 107 102 96 91 85 79 75 71
304 323 312 202 147 173 256 255 247 245 291 125 118 121 117 165 173 158 151 164 169 169 168 170 170 167 167 167 168 160 140 126 117 123 126 127 123 121 120 117 114 108 102 94 87 82 78 75 69
297 312 279 184 184 202 206 221 252 284 197 148 114 106 142 204 184 166 161 160 167 169 168 170 171 170 170 168 169 163 152 139 123 126 129 128 128 126 123 122 116 106 98 90 83 80 75 69 63
284 291 239 152 226 252 202 201 257 20 195 229 155 96 153 182 182 170 162 163 167 168 168 171 171 171 172 171 169 169 163 142 114 120 125 128 129 129 126 114 106 100 93 88 83 75 66 58 50
270 233 237 225 241 248 237 265 285 287 191 203 165 178 94 139 164 167 166 165 170 168 168 169 172 175 174 173 171 168 152 130 119 129 134 134 130 129 122 114 107 98 92 86 79 70 60 56 44
238 176 189 222 233 220 229 239 239 240 194 175 149 134 152 163 173 165 165 168 174 170 168 169 171 176 177 174 174 168 159 145 134 141 141 140 137 131 124 116 107 99 91 84 76 64 58 43 26
192 174 213 215 229 239 217 229 201 226 197 219 160 140 185 174 175 170 169 169 172 174 172 170 172 174 175 174 173 173 174 165 159 154 148 143 139 134 125 116 107 102 102 97 77 61 39 20 12
215 210 220 199 218 247 217 192 273 198 231 181 176 186 196 185 175 174 169 172 178 178 177 174 173 175 174 172 175 179 183 179 173 163 155 149 143 135 127 122 118 120 121 83 61 33 0 351 341
216 229 233 223 210 233 172 143 94 204 159 182 202 205 176 187 174 176 175 178 183 183 181 178 176 175 175 174 176 182 186 186 175 167 160 154 147 140 136 132 131 121 91 54 359 12 359 353 349
212 237 234 234 194 212 189 160 38 215 203 188 212 232 227 186 181 182 183 181 185 185 183 183 179 178 178 178 181 185 191 186 176 169 164 158 154 151 146 144 140 136 31 23 1 354 338 347 341
223 242 247 240 221 228 243 230 224 196 236 222 223 234 214 189 187 189 189 190 189 189 187 187 184 183 183 184 187 190 192 185 178 172 167 166 162 159 159 157 146 61 8 337 329 320 329 336 335
267 242 237 255 249 232 215 219 204 207 235 286 298 249 208 191 194 194 195 193 193 192 193 190 190 190 189 191 194 196 191 184 180 177 176 174 172 173 171 173 153 271 317 324 317 318 323 327 321
262 275 265 248 248 245 232 211 227 214 240 259 300 211 200 194 198 199 199 199 196 194 196 195 193 195 194 194 194 193 187 183 181 183 181 180 179 184 174 177 193 268 287 302 314 316 317 315 318
304 301 280 256 250 238 241 239 217 234 241 257 259 224 203 189 202 206 211 206 199 198 200 195 192 191 194 194 191 187 184 186 189 188 188 185 188 183 189 202 229 267 291 303 310 311 307 309 316
283 278 285 258 245 240 233 253 232 234 228 241 242 239 215 207 216 220 217 212 206 204 203 196 190 191 192 191 186 185 186 189 191 191 191 191 188 197 200 226 246 276 292 299 301 302 305 313 316
293 263 248 252 219 229 185 253 222 230 228 233 234 230 218 206 231 229 221 214 210 207 200 192 191 190 185 184 184 184 187 188 186 188 194 192 198 207 222 231 255 280 291 287 288 292 296 310 317
233 253 234 255 214 204 211 248 211 226 215 221 221 217 223 221 229 221 217 213 210 204 196 191 190 186 180 174 176 184 185 185 188 189 197 200 215 223 225 240 264 281 280 276 271 280 299 313 307
240 243 249 226 219 211 223 235 266 228 219 217 211 212 211 207 218 215 213 212 208 202 197 192 190 189 186 185 190 191 186 191 192 199 200 208 223 236 241 257 266 272 263 261 271 287 307 319 294
257 264 251 226 236 250 222 235 228 229 238 217 203 200 199 210 209 212 211 209 205 202 198 196 192 190 190 188 192 199 193 197 195 203 209 218 233 246 246 252 257 250 240 252 267 289 324 345 207
243 260 264 253 221 238 288 247 237 242 236 219 212 200 201 198 194 205 206 206 204 203 201 198 196 195 195 199 198 199 197 202 205 207 215 223 240 242 251 251 240 228 228 251 285 308 308 315 229
247 244 255 251 177 215 257 265 254 242 238 219 213 208 204 195 198 203 205 207 205 206 204 201 199 200 198 200 199 200 200 205 207 212 219 230 242 237 240 234 218 214 223 250 280 287 294 309 320
245 224 244 274 175 215 170 259 221 224 227 217 203 205 200 191 197 206 208 207 207 209 210 207 205 204 205 205 208 210 211 208 213 221 229 234 236 230 221 211 206 211 218 222 287 303 307 312 312
244 209 245 232 214 202 190 236 251 182 207 205 195 198 200 191 189 198 212 211 209 209 212 212 210 210 208 211 212 216 214 220 218 222 225 233 233 219 207 198 196 194 197 305 300 302 306 311 318
165 216 244 125 202 205 194 205 244 197 205 204 201 192 193 199 206 224 220 211 208 208 210 207 209 211 208 211 212 219 213 218 223 217 219 225 213 206 195 191 184 186 291 296 296 289 319 342 332
189 196 166 203 208 195 194 194 240 215 248 205 189 176 179 189 190 198 208 205 206 204 205 201 204 207 206 209 214 215 218 220 227 225 219 217 202 190 188 181 181 290 311 299 288 314 340 336 339
183 215 176 171 168 145 188 222 236 257 277 236 193 168 179 175 190 199 204 203 204 204 201 200 202 203 205 210 214 216 215 221 223 217 204 198 183 181 182 178 291 309 313 270 274 309 334 333 332
171 204 252 190 55 67 210 267 274 316 272 178 161 151 170 180 193 200 201 202 202 201 198 200 201 202 205 210 214 215 221 218 210 201 194 173 165 170 169 275 300 290 241 243 269 313 318 323 322
227 155 159 36 143 230 226 254 275 353 234 166 161 157 163 166 176 191 195 195 198 198 197 201 205 205 206 208 213 217 213 214 203 182 166 167 173 169 271 285 274 227 230 246 281 303 307 310 306
130 169 48 92 140 99 267 247 200 290 293 170 159 139 143 160 177 182 182 187 192 195 201 203 202 208 210 212 212 200 197 183 180 175 156 173 204 253 273 253 232 231 239 262 281 288 296 297 298
59 42 27 147 168 210 264 286 339 291 277 135 115 122 141 163 173 182 183 185 190 192 194 197 196 197 202 195 187 189 185 175 160 152 167 213 249 250 232 230 232 243 255 268 277 282 287 293 293